Hourly Data Report for October 01, 2013

All times are specified in Local Standard Time (LST). Add 1 hour to adjust for Daylight Saving Time where and when it is observed.

FREDERICTON
NEW BRUNSWICK

45°52'08.000" N
66°32'14.000" W
20.70 m
8101505
71700
YFC

Download Data

Hourly Data (October 2013)
Hourly Data Report for October 1, 2013
Temp Definition
°C
Dew Point Temp Definition
°C
Rel Hum Definition
%
Wind Dir Definition
10's deg

Wind Spd Definition
km/h
Visibility Definition
km
Stn Press Definition
kPa
Hmdx Definition


Wind Chill Definition


Weather Definition


TIME
00:00 Legend Double Dagger 11.4 10.0 91   0 16.1 101.28     LegendNANA
01:00 Legend Double Dagger 9.8 9.3 97 2 4 16.1 101.21     LegendNANA
02:00 Legend Double Dagger 9.6 9.0 96   0 16.1 101.20     LegendNANA
03:00 Legend Double Dagger 9.7 9.1 96 35 4 16.1 101.15     LegendNANA
04:00 Legend Double Dagger 9.2 8.8 97 36 4 14.5 101.12     LegendNANA
05:00 Legend Double Dagger 7.7 7.3 97 31 4 11.3 101.13     LegendNANA
06:00 Legend Double Dagger 6.5 6.2 98 32 4 6.4 101.16     LegendNANA
07:00 Legend Double Dagger 8.5 8.2 98 34 8 16.1 101.12     LegendNANA
08:00 Legend Double Dagger 9.6 8.8 95 32 9 16.1 101.11     LegendNANA
09:00 Legend Double Dagger 11.5 9.6 88 32 8 16.1 101.11     LegendNANA
10:00 Legend Double Dagger 14.4 10.3 76 34 5 16.1 101.06     LegendNANA
11:00 Legend Double Dagger 17.6 11.3 66 LegendMM 4 16.1 100.99     LegendNANA
12:00 Legend Double Dagger 18.4 11.4 63   0 16.1 100.93     LegendNANA
13:00 Legend Double Dagger 18.8 11.6 63   0 16.1 100.84     LegendNANA
14:00 Legend Double Dagger 19.6 11.4 59 10 8 16.1 100.76     LegendNANA
15:00 Legend Double Dagger 20.9 10.6 51 10 5 16.1 100.67     LegendNANA
16:00 Legend Double Dagger 20.7 10.4 51 11 4 16.1 100.63     LegendNANA
17:00 Legend Double Dagger 20.5 11.4 55 11 8 16.1 100.62     LegendNANA
18:00 Legend Double Dagger 17.1 12.5 74 19 5 16.1 100.63     LegendNANA
19:00 Legend Double Dagger 13.9 12.0 88 11 8 12.9 100.65     LegendNANA
20:00 Legend Double Dagger 11.6 10.6 93 26 5 16.1 100.67     LegendNANA
21:00 Legend Double Dagger 11.4 10.5 94   0 16.1 100.68     LegendNANA
22:00 Legend Double Dagger 10.3 9.9 97 21 5 16.1 100.65     LegendNANA
23:00 Legend Double Dagger 9.8 9.5 98 20 8 16.1 100.61     LegendNANA

Notes on Data Quality.

Legend

  • E = Estimated
  • M = Missing
  • NA = Not Available
  • ‡ = Partner data that is not subject to review by the National Climate Archives
Date modified: